User: anonymous   Login
Location: Unspecified
(0.0000°N, 0.0000°E)
Time: 08:42:38
(UTC+00:00)
Language:

Gonets-D1 - Orbit

View from above orbital plane
View from above orbital plane
View from above satellite
View from above satellite

Ground track
Ground track

The orbit data is extracted from the following two-line orbital elements,

1 23789U 96009C   17294.11911748  .00000058  00000-0  26234-3 0  9991
2 23789  82.5816 177.9420 0005828  32.1656 327.9784 12.62595874998776
Epoch (UTC): 21 October 2017 02:51:31
Eccentricity: 0.0005828
inclination: 82.5816°
perigee height: 1408 km
apogee height: 1417 km
right ascension of ascending node: 177.9420°
argument of perigee: 32.1656°
revolutions per day: 12.62595874
mean anomaly at epoch: 327.9784°
orbit number at epoch: 99877

The dashed part of the orbit path shows where the satellite is in the earth's shadow,  

DLR